User: anonymous   Login
Location: Bergen
(60.3910°N, 5.3250°E)
Time: 09:04:50
(UTC+01:00)
Language:

Cosmos 1943 - Orbit

View from above orbital plane
View from above orbital plane
View from above satellite
View from above satellite

Ground track
Ground track

The orbit data is extracted from the following two-line orbital elements,

1 19119U 88039A   14352.54642269  .00000383  00000-0  22239-3 0  3171
2 19119 071.0019 216.0849 0011737 353.9947 053.3468 14.14971695373133
Epoch (UTC): 18 December 2014 13:06:50
Eccentricity: 0.0011737
inclination: 71.0019°
perigee height: 834 km
apogee height: 851 km
right ascension of ascending node: 216.0849°
argument of perigee: 353.9947°
revolutions per day: 14.14971695
mean anomaly at epoch: 53.3468°
orbit number at epoch: 37313

The dashed part of the orbit path shows where the satellite is in the earth's shadow,  

DLR